Tabellarische Ansicht des 20.11.2020


Die einzelnen Werte des Tages

Uhrzeit Temperatur Luftdruck Luftfeuchte Wind Hi-Wind Taupunkt THW Index Wind Chill Heat Index Solar- strahlung Regen

00:00

4.3 C

1025.4 hpa

84 %

8.0 km/h aus 116

17.7 km/h aus SW

1.8 C

2.2 C

2.3 C

4.2 C

0 W/m

0.00 mm

00:05

4.2 C

1025.4 hpa

84 %

4.8 km/h aus 115

17.7 km/h aus SW

1.8 C

3.2 C

3.3 C

4.1 C

0 W/m

0.00 mm

00:10

4.2 C

1025.4 hpa

85 %

8.0 km/h aus 117

17.7 km/h aus WSW

1.9 C

2.1 C

2.2 C

4.1 C

0 W/m

0.00 mm

00:15

4.2 C

1025.7 hpa

84 %

6.4 km/h aus 117

16.1 km/h aus SW

1.7 C

2.5 C

2.6 C

4.1 C

0 W/m

0.00 mm

00:20

4.1 C

1025.7 hpa

84 %

8.0 km/h aus 117

17.7 km/h aus SW

1.6 C

2.0 C

2.1 C

4.0 C

0 W/m

0.00 mm

00:25

4.1 C

1025.7 hpa

84 %

3.2 km/h aus 115

9.7 km/h aus WSW

1.6 C

3.8 C

3.9 C

4.0 C

0 W/m

0.00 mm

00:30

4.1 C

1026.0 hpa

85 %

8.0 km/h aus 114

16.1 km/h aus SW

1.8 C

1.9 C

2.1 C

3.9 C

0 W/m

0.00 mm

00:35

4.0 C

1026.0 hpa

85 %

6.4 km/h aus 118

14.5 km/h aus W

1.7 C

2.3 C

2.4 C

3.9 C

0 W/m

0.00 mm

00:40

4.1 C

1026.0 hpa

85 %

9.7 km/h aus 117

20.9 km/h aus WSW

1.8 C

1.5 C

1.6 C

3.9 C

0 W/m

0.00 mm

00:45

4.1 C

1026.1 hpa

85 %

8.0 km/h aus 117

17.7 km/h aus SW

1.8 C

1.9 C

2.1 C

3.9 C

0 W/m

0.00 mm

00:50

4.1 C

1026.1 hpa

85 %

9.7 km/h aus 116

24.1 km/h aus WSW

1.8 C

1.5 C

1.6 C

3.9 C

0 W/m

0.00 mm

00:55

4.1 C

1026.1 hpa

85 %

6.4 km/h aus 117

20.9 km/h aus WSW

1.8 C

2.4 C

2.6 C

4.0 C

0 W/m

0.00 mm

01:00

4.1 C

1026.0 hpa

85 %

8.0 km/h aus 113

25.7 km/h aus SW

1.8 C

2.0 C

2.1 C

4.0 C

0 W/m

0.00 mm

01:05

4.1 C

1026.0 hpa

84 %

8.0 km/h aus 114

17.7 km/h aus WSW

1.6 C

1.9 C

2.1 C

3.9 C

0 W/m

0.00 mm

01:10

4.1 C

1026.0 hpa

85 %

8.0 km/h aus 117

16.1 km/h aus SW

1.8 C

1.9 C

2.1 C

3.9 C

0 W/m

0.00 mm

01:15

4.1 C

1026.0 hpa

84 %

9.7 km/h aus 117

20.9 km/h aus SW

1.6 C

1.5 C

1.6 C

3.9 C

0 W/m

0.00 mm

01:20

4.1 C

1026.0 hpa

85 %

6.4 km/h aus 117

19.3 km/h aus W

1.8 C

2.4 C

2.5 C

3.9 C

0 W/m

0.00 mm

01:25

4.1 C

1026.0 hpa

85 %

6.4 km/h aus 117

20.9 km/h aus WSW

1.8 C

2.4 C

2.5 C

3.9 C

0 W/m

0.00 mm

01:30

4.1 C

1026.1 hpa

85 %

11.3 km/h aus 117

24.1 km/h aus SW

1.8 C

1.2 C

1.3 C

4.0 C

0 W/m

0.00 mm

01:35

4.2 C

1026.1 hpa

85 %

8.0 km/h aus 114

17.7 km/h aus W

1.9 C

2.1 C

2.2 C

4.1 C

0 W/m

0.00 mm

01:40

4.2 C

1026.1 hpa

85 %

9.7 km/h aus 116

20.9 km/h aus WSW

1.9 C

1.7 C

1.8 C

4.1 C

0 W/m

0.00 mm

01:45

4.3 C

1026.5 hpa

85 %

9.7 km/h aus 117

17.7 km/h aus WSW

2.0 C

1.8 C

1.9 C

4.2 C

0 W/m

0.00 mm

01:50

4.3 C

1026.5 hpa

85 %

9.7 km/h aus 117

22.5 km/h aus WSW

2.0 C

1.8 C

1.9 C

4.2 C

0 W/m

0.00 mm

01:55

4.3 C

1026.5 hpa

85 %

6.4 km/h aus 116

17.7 km/h aus SW

2.0 C

2.7 C

2.8 C

4.2 C

0 W/m

0.00 mm

02:00

4.3 C

1026.2 hpa

84 %

11.3 km/h aus 117

25.7 km/h aus WSW

1.9 C

1.5 C

1.6 C

4.2 C

0 W/m

0.00 mm

02:05

4.3 C

1026.2 hpa

84 %

8.0 km/h aus 115

16.1 km/h aus WSW

1.9 C

2.2 C

2.3 C

4.2 C

0 W/m

0.00 mm

02:10

4.3 C

1026.2 hpa

84 %

8.0 km/h aus 113

20.9 km/h aus WSW

1.9 C

2.2 C

2.3 C

4.2 C

0 W/m

0.00 mm

02:15

4.3 C

1026.4 hpa

84 %

8.0 km/h aus 116

19.3 km/h aus SW

1.9 C

2.2 C

2.3 C

4.2 C

0 W/m

0.00 mm

02:20

4.3 C

1026.4 hpa

84 %

8.0 km/h aus 117

20.9 km/h aus SW

1.9 C

2.2 C

2.3 C

4.2 C

0 W/m

0.00 mm

02:25

4.3 C

1026.4 hpa

84 %

8.0 km/h aus 116

17.7 km/h aus SW

1.8 C

2.2 C

2.3 C

4.2 C

0 W/m

0.00 mm

02:30

4.3 C

1026.2 hpa

84 %

9.7 km/h aus 117

20.9 km/h aus WSW

1.8 C

1.8 C

1.9 C

4.2 C

0 W/m

0.00 mm

02:35

4.3 C

1026.2 hpa

84 %

9.7 km/h aus 116

24.1 km/h aus WNW

1.8 C

1.8 C

1.9 C

4.2 C

0 W/m

0.00 mm

02:40

4.3 C

1026.2 hpa

84 %

12.9 km/h aus 115

24.1 km/h aus W

1.8 C

1.1 C

1.2 C

4.2 C

0 W/m

0.00 mm

02:45

4.2 C

1026.1 hpa

84 %

11.3 km/h aus 115

20.9 km/h aus WSW

1.8 C

1.4 C

1.5 C

4.1 C

0 W/m

0.00 mm

02:50

4.2 C

1026.1 hpa

84 %

8.0 km/h aus 117

17.7 km/h aus WSW

1.8 C

2.1 C

2.2 C

4.1 C

0 W/m

0.00 mm

02:55

4.2 C

1026.1 hpa

84 %

11.3 km/h aus 117

20.9 km/h aus W

1.7 C

1.3 C

1.4 C

4.1 C

0 W/m

0.00 mm

03:00

4.1 C

1026.2 hpa

84 %

9.7 km/h aus 117

19.3 km/h aus WSW

1.6 C

1.6 C

1.7 C

4.0 C

0 W/m

0.00 mm

03:05

4.1 C

1026.2 hpa

84 %

6.4 km/h aus 116

17.7 km/h aus WSW

1.6 C

2.4 C

2.5 C

3.9 C

0 W/m

0.00 mm

03:10

4.1 C

1026.2 hpa

84 %

8.0 km/h aus 117

19.3 km/h aus WSW

1.6 C

1.9 C

2.1 C

3.9 C

0 W/m

0.00 mm

03:15

4.0 C

1026.2 hpa

85 %

9.7 km/h aus 114

22.5 km/h aus WSW

1.7 C

1.4 C

1.6 C

3.9 C

0 W/m

0.00 mm

03:20

4.0 C

1026.2 hpa

85 %

8.0 km/h aus 115

19.3 km/h aus W

1.7 C

1.8 C

1.9 C

3.9 C

0 W/m

0.00 mm

03:25

4.0 C

1026.2 hpa

85 %

9.7 km/h aus 117

22.5 km/h aus WSW

1.7 C

1.4 C

1.6 C

3.9 C

0 W/m

0.00 mm

03:30

3.9 C

1026.4 hpa

85 %

9.7 km/h aus 117

19.3 km/h aus WSW

1.7 C

1.4 C

1.5 C

3.8 C

0 W/m

0.00 mm

03:35

3.9 C

1026.4 hpa

85 %

4.8 km/h aus 117

17.7 km/h aus WSW

1.6 C

2.8 C

2.9 C

3.8 C

0 W/m

0.00 mm

03:40

3.9 C

1026.4 hpa

85 %

8.0 km/h aus 117

17.7 km/h aus WSW

1.6 C

1.7 C

1.8 C

3.8 C

0 W/m

0.00 mm

03:45

3.8 C

1026.4 hpa

85 %

6.4 km/h aus 116

17.7 km/h aus SW

1.5 C

2.1 C

2.2 C

3.7 C

0 W/m

0.00 mm

03:50

3.9 C

1026.4 hpa

86 %

9.7 km/h aus 116

19.3 km/h aus WSW

1.8 C

1.3 C

1.4 C

3.8 C

0 W/m

0.00 mm

03:55

3.8 C

1026.4 hpa

86 %

4.8 km/h aus 115

16.1 km/h aus SSW

1.7 C

2.7 C

2.8 C

3.7 C

0 W/m

0.00 mm

04:00

3.8 C

1026.4 hpa

86 %

3.2 km/h aus 117

9.7 km/h aus SW

1.7 C

3.4 C

3.6 C

3.7 C

0 W/m

0.00 mm

04:05

3.8 C

1026.4 hpa

85 %

6.4 km/h aus 117

16.1 km/h aus SW

1.5 C

2.1 C

2.2 C

3.7 C

0 W/m

0.00 mm

04:10

3.7 C

1026.4 hpa

86 %

6.4 km/h aus 117

14.5 km/h aus SSW

1.6 C

2.0 C

2.1 C

3.6 C

0 W/m

0.00 mm

04:15

3.7 C

1026.4 hpa

86 %

3.2 km/h aus 116

11.3 km/h aus WSW

1.5 C

3.3 C

3.4 C

3.6 C

0 W/m

0.00 mm

04:20

3.7 C

1026.4 hpa

86 %

4.8 km/h aus 116

17.7 km/h aus SW

1.5 C

2.6 C

2.7 C

3.6 C

0 W/m

0.00 mm

04:25

3.6 C

1026.4 hpa

86 %

6.4 km/h aus 113

19.3 km/h aus SW

1.5 C

1.9 C

2.0 C

3.5 C

0 W/m

0.00 mm

04:30

3.6 C

1026.5 hpa

86 %

6.4 km/h aus 116

16.1 km/h aus SW

1.4 C

1.8 C

1.9 C

3.4 C

0 W/m

0.00 mm

04:35

3.6 C

1026.5 hpa

86 %

8.0 km/h aus 117

22.5 km/h aus SW

1.4 C

1.3 C

1.4 C

3.4 C

0 W/m

0.00 mm

04:40

3.6 C

1026.5 hpa

86 %

8.0 km/h aus 117

14.5 km/h aus SW

1.4 C

1.3 C

1.4 C

3.4 C

0 W/m

0.00 mm

04:45

3.6 C

1026.5 hpa

87 %

9.7 km/h aus 117

22.5 km/h aus SW

1.6 C

0.9 C

1.1 C

3.4 C

0 W/m

0.00 mm

04:50

3.7 C

1026.5 hpa

87 %

6.4 km/h aus 117

22.5 km/h aus WSW

1.7 C

1.9 C

2.1 C

3.6 C

0 W/m

0.00 mm

04:55

3.7 C

1026.5 hpa

87 %

11.3 km/h aus 116

25.7 km/h aus W

1.8 C

0.8 C

0.9 C

3.6 C

0 W/m

0.00 mm

05:00

3.8 C

1026.5 hpa

87 %

9.7 km/h aus 114

20.9 km/h aus WSW

1.9 C

1.2 C

1.3 C

3.7 C

0 W/m

0.00 mm

05:05

3.9 C

1026.5 hpa

87 %

6.4 km/h aus 116

19.3 km/h aus WSW

1.9 C

2.2 C

2.3 C

3.8 C

0 W/m

0.00 mm

05:10

3.9 C

1026.5 hpa

87 %

8.0 km/h aus 116

17.7 km/h aus WSW

2.0 C

1.8 C

1.9 C

3.8 C

0 W/m

0.00 mm

05:15

3.9 C

1026.6 hpa

87 %

9.7 km/h aus 117

20.9 km/h aus WSW

2.0 C

1.4 C

1.5 C

3.8 C

0 W/m

0.00 mm

05:20

3.9 C

1026.6 hpa

87 %

8.0 km/h aus 117

19.3 km/h aus SW

2.0 C

1.8 C

1.9 C

3.8 C

0 W/m

0.00 mm

05:25

3.9 C

1026.6 hpa

87 %

6.4 km/h aus 116

16.1 km/h aus SW

2.0 C

2.3 C

2.4 C

3.8 C

0 W/m

0.00 mm

05:30

3.9 C

1026.6 hpa

87 %

6.4 km/h aus 115

16.1 km/h aus SW

1.9 C

2.2 C

2.3 C

3.8 C

0 W/m

0.00 mm

05:35

3.8 C

1026.6 hpa

87 %

4.8 km/h aus 114

9.7 km/h aus SW

1.9 C

2.7 C

2.8 C

3.7 C

0 W/m

0.00 mm

05:40

3.8 C

1026.6 hpa

87 %

6.4 km/h aus 117

17.7 km/h aus SW

1.9 C

2.1 C

2.2 C

3.7 C

0 W/m

0.00 mm

05:45

3.8 C

1026.9 hpa

87 %

4.8 km/h aus 117

16.1 km/h aus SW

1.8 C

2.7 C

2.8 C

3.7 C

0 W/m

0.00 mm

05:50

3.8 C

1026.9 hpa

87 %

6.4 km/h aus 117

11.3 km/h aus WSW

1.9 C

2.1 C

2.2 C

3.7 C

0 W/m

0.00 mm

05:55

3.8 C

1026.9 hpa

87 %

4.8 km/h aus 117

11.3 km/h aus WSW

1.9 C

2.7 C

2.8 C

3.7 C

0 W/m

0.00 mm

06:00

3.9 C

1026.8 hpa

87 %

6.4 km/h aus 118

17.7 km/h aus WSW

1.9 C

2.2 C

2.3 C

3.8 C

0 W/m

0.00 mm

06:05

3.9 C

1026.8 hpa

87 %

8.0 km/h aus 114

16.1 km/h aus SW

1.9 C

1.7 C

1.8 C

3.8 C

0 W/m

0.00 mm

06:10

3.9 C

1026.8 hpa

87 %

6.4 km/h aus 115

14.5 km/h aus SSW

1.9 C

2.2 C

2.3 C

3.8 C

0 W/m

0.00 mm

06:15

3.9 C

1026.9 hpa

87 %

6.4 km/h aus 115

17.7 km/h aus WSW

2.0 C

2.3 C

2.4 C

3.8 C

0 W/m

0.00 mm

06:20

3.9 C

1026.9 hpa

87 %

8.0 km/h aus 116

17.7 km/h aus WSW

2.0 C

1.8 C

1.9 C

3.8 C

0 W/m

0.00 mm

06:25

3.9 C

1026.9 hpa

87 %

3.2 km/h aus 117

9.7 km/h aus SW

2.0 C

3.7 C

3.8 C

3.8 C

0 W/m

0.00 mm

06:30

3.9 C

1026.9 hpa

87 %

4.8 km/h aus 115

17.7 km/h aus WSW

2.0 C

2.8 C

2.9 C

3.8 C

0 W/m

0.00 mm

06:35

3.9 C

1026.9 hpa

87 %

4.8 km/h aus 115

14.5 km/h aus WSW

2.0 C

2.8 C

2.9 C

3.8 C

0 W/m

0.00 mm

06:40

3.9 C

1026.9 hpa

87 %

6.4 km/h aus 115

17.7 km/h aus SW

2.0 C

2.3 C

2.4 C

3.8 C

0 W/m

0.00 mm

06:45

3.9 C

1027.0 hpa

87 %

4.8 km/h aus 114

11.3 km/h aus SW

2.0 C

2.8 C

2.9 C

3.8 C

0 W/m

0.00 mm

06:50

4.0 C

1027.0 hpa

87 %

8.0 km/h aus 115

16.1 km/h aus SW

2.0 C

1.8 C

1.9 C

3.9 C

0 W/m

0.00 mm

06:55

4.1 C

1027.0 hpa

87 %

8.0 km/h aus 116

17.7 km/h aus SW

2.1 C

1.9 C

2.1 C

3.9 C

0 W/m

0.00 mm

07:00

4.1 C

1027.1 hpa

87 %

6.4 km/h aus 116

17.7 km/h aus WSW

2.1 C

2.4 C

2.6 C

4.0 C

0 W/m

0.00 mm

07:05

4.2 C

1027.1 hpa

87 %

4.8 km/h aus 117

12.9 km/h aus SW

2.2 C

3.1 C

3.2 C

4.1 C

0 W/m

0.00 mm

07:10

4.2 C

1027.1 hpa

87 %

3.2 km/h aus 115

11.3 km/h aus WSW

2.2 C

3.9 C

4.0 C

4.1 C

0 W/m

0.00 mm

07:15

4.2 C

1027.3 hpa

87 %

6.4 km/h aus 113

14.5 km/h aus WSW

2.2 C

2.5 C

2.6 C

4.1 C

0 W/m

0.00 mm

07:20

4.2 C

1027.3 hpa

87 %

6.4 km/h aus 116

20.9 km/h aus WSW

2.2 C

2.5 C

2.6 C

4.1 C

0 W/m

0.00 mm

07:25

4.2 C

1027.3 hpa

87 %

8.0 km/h aus 117

22.5 km/h aus WSW

2.2 C

2.1 C

2.2 C

4.1 C

0 W/m

0.00 mm

07:30

4.2 C

1027.3 hpa

86 %

4.8 km/h aus 117

17.7 km/h aus WSW

2.0 C

3.1 C

3.2 C

4.1 C

0 W/m

0.00 mm

07:35

4.1 C

1027.3 hpa

86 %

1.6 km/h aus 115

6.4 km/h aus SW

2.0 C

4.0 C

4.1 C

4.0 C

0 W/m

0.00 mm

07:40

4.1 C

1027.3 hpa

86 %

3.2 km/h aus 115

16.1 km/h aus SW

2.0 C

3.8 C

3.9 C

4.0 C

0 W/m

0.00 mm

07:45

4.2 C

1027.5 hpa

87 %

6.4 km/h aus 114

14.5 km/h aus SW

2.2 C

2.5 C

2.6 C

4.1 C

0 W/m

0.00 mm

07:50

4.2 C

1027.5 hpa

87 %

6.4 km/h aus 116

17.7 km/h aus SW

2.2 C

2.5 C

2.6 C

4.1 C

0 W/m

0.00 mm

07:55

4.2 C

1027.5 hpa

86 %

3.2 km/h aus 117

9.7 km/h aus SW

2.0 C

3.9 C

4.0 C

4.1 C

4 W/m

0.00 mm

08:00

4.1 C

1028.1 hpa

86 %

3.2 km/h aus 116

8.0 km/h aus SW

2.0 C

3.8 C

3.9 C

4.0 C

6 W/m

0.00 mm

08:05

4.1 C

1028.1 hpa

87 %

4.8 km/h aus 116

11.3 km/h aus SW

2.1 C

3.1 C

3.2 C

4.0 C

7 W/m

0.00 mm

08:10

4.1 C

1028.1 hpa

87 %

3.2 km/h aus 117

9.7 km/h aus SW

2.1 C

3.8 C

3.9 C

4.0 C

11 W/m

0.00 mm

08:15

4.1 C

1028.2 hpa

87 %

6.4 km/h aus 116

16.1 km/h aus WSW

2.1 C

2.4 C

2.6 C

4.0 C

13 W/m

0.00 mm

08:20

4.2 C

1028.2 hpa

87 %

8.0 km/h aus 113

16.1 km/h aus WSW

2.2 C

2.1 C

2.2 C

4.1 C

8 W/m

0.00 mm

08:25

4.2 C

1028.2 hpa

87 %

4.8 km/h aus 116

16.1 km/h aus WSW

2.2 C

3.2 C

3.3 C

4.1 C

12 W/m

0.00 mm

08:30

4.3 C

1028.3 hpa

87 %

8.0 km/h aus 116

17.7 km/h aus SW

2.3 C

2.2 C

2.3 C

4.2 C

16 W/m

0.00 mm

08:35

4.3 C

1028.3 hpa

87 %

6.4 km/h aus 115

14.5 km/h aus WSW

2.4 C

2.7 C

2.8 C

4.2 C

24 W/m

0.00 mm

08:40

4.4 C

1028.3 hpa

87 %

6.4 km/h aus 117

17.7 km/h aus SW

2.4 C

2.8 C

2.9 C

4.3 C

30 W/m

0.00 mm

08:45

4.4 C

1028.6 hpa

87 %

3.2 km/h aus 116

16.1 km/h aus SW

2.4 C

4.2 C

4.3 C

4.3 C

35 W/m

0.00 mm

08:50

4.4 C

1028.6 hpa

87 %

8.0 km/h aus 114

16.1 km/h aus SW

2.5 C

2.4 C

2.5 C

4.3 C

34 W/m

0.00 mm

08:55

4.5 C

1028.6 hpa

87 %

3.2 km/h aus 114

19.3 km/h aus SW

2.5 C

4.3 C

4.4 C

4.4 C

41 W/m

0.00 mm

09:00

4.6 C

1028.7 hpa

87 %

4.8 km/h aus 116

16.1 km/h aus WSW

2.6 C

3.6 C

3.7 C

4.4 C

52 W/m

0.00 mm

09:05

4.6 C

1028.7 hpa

87 %

3.2 km/h aus 116

12.9 km/h aus SW

2.6 C

4.4 C

4.5 C

4.5 C

64 W/m

0.00 mm

09:10

4.7 C

1028.7 hpa

87 %

1.6 km/h aus 117

14.5 km/h aus WSW

2.7 C

4.6 C

4.7 C

4.6 C

57 W/m

0.00 mm

09:15

4.7 C

1028.6 hpa

87 %

3.2 km/h aus 118

11.3 km/h aus SW

2.7 C

4.5 C

4.6 C

4.6 C

44 W/m

0.00 mm

09:20

4.8 C

1028.6 hpa

87 %

4.8 km/h aus 114

17.7 km/h aus SW

2.8 C

3.8 C

3.9 C

4.7 C

40 W/m

0.00 mm

09:25

4.8 C

1028.6 hpa

87 %

4.8 km/h aus 115

11.3 km/h aus WSW

2.8 C

3.8 C

3.9 C

4.7 C

43 W/m

0.00 mm

09:30

4.8 C

1028.7 hpa

87 %

3.2 km/h aus 117

11.3 km/h aus W

2.8 C

4.6 C

4.7 C

4.7 C

49 W/m

0.00 mm

09:35

4.8 C

1028.7 hpa

87 %

4.8 km/h aus 117

14.5 km/h aus WSW

2.8 C

3.8 C

3.9 C

4.7 C

52 W/m

0.00 mm

09:40

4.8 C

1028.7 hpa

87 %

3.2 km/h aus 117

11.3 km/h aus WSW

2.9 C

4.7 C

4.8 C

4.7 C

54 W/m

0.00 mm

09:45

4.9 C

1028.9 hpa

87 %

8.0 km/h aus 117

17.7 km/h aus WSW

2.9 C

2.9 C

3.0 C

4.8 C

57 W/m

0.00 mm

09:50

4.9 C

1028.9 hpa

88 %

3.2 km/h aus 115

14.5 km/h aus SW

3.1 C

4.8 C

4.9 C

4.9 C

66 W/m

0.25 mm

09:55

5.1 C

1028.9 hpa

88 %

8.0 km/h aus 114

16.1 km/h aus WSW

3.2 C

3.1 C

3.2 C

5.0 C

92 W/m

0.00 mm

10:00

5.2 C

1029.0 hpa

88 %

4.8 km/h aus 116

9.7 km/h aus W

3.3 C

4.3 C

4.3 C

5.1 C

76 W/m

0.00 mm

10:05

5.2 C

1029.0 hpa

88 %

1.6 km/h aus 116

8.0 km/h aus W

3.3 C

5.1 C

5.2 C

5.1 C

63 W/m

0.00 mm

10:10

5.2 C

1029.0 hpa

88 %

1.6 km/h aus 116

9.7 km/h aus WNW

3.3 C

5.1 C

5.2 C

5.1 C

74 W/m

0.00 mm

10:15

5.2 C

1029.1 hpa

88 %

6.4 km/h aus 116

12.9 km/h aus WSW

3.3 C

3.7 C

3.8 C

5.1 C

89 W/m

0.00 mm

10:20

5.3 C

1029.1 hpa

88 %

6.4 km/h aus 118

17.7 km/h aus WNW

3.5 C

3.9 C

3.9 C

5.2 C

120 W/m

0.00 mm

10:25

5.4 C

1029.1 hpa

88 %

8.0 km/h aus 114

19.3 km/h aus WSW

3.6 C

3.6 C

3.7 C

5.4 C

127 W/m

0.00 mm

10:30

5.6 C

1029.2 hpa

87 %

4.8 km/h aus 115

9.7 km/h aus WSW

3.6 C

4.7 C

4.8 C

5.5 C

113 W/m

0.00 mm

10:35

5.6 C

1029.2 hpa

87 %

3.2 km/h aus 117

14.5 km/h aus SW

3.6 C

5.6 C

5.6 C

5.6 C

103 W/m

0.00 mm

10:40

5.6 C

1029.2 hpa

87 %

9.7 km/h aus 117

20.9 km/h aus W

3.6 C

3.4 C

3.4 C

5.6 C

108 W/m

0.00 mm

10:45

5.6 C

1029.4 hpa

86 %

12.9 km/h aus 117

22.5 km/h aus WSW

3.5 C

2.7 C

2.8 C

5.5 C

111 W/m

0.00 mm

10:50

5.7 C

1029.4 hpa

86 %

12.9 km/h aus 117

20.9 km/h aus SW

3.5 C

2.8 C

2.9 C

5.6 C

101 W/m

0.00 mm

10:55

5.7 C

1029.4 hpa

86 %

9.7 km/h aus 114

22.5 km/h aus W

3.6 C

3.6 C

3.6 C

5.7 C

125 W/m

0.00 mm

11:00

5.8 C

1029.6 hpa

86 %

11.3 km/h aus 115

24.1 km/h aus W

3.6 C

3.3 C

3.3 C

5.7 C

110 W/m

0.00 mm

11:05

5.8 C

1029.6 hpa

86 %

9.7 km/h aus 117

19.3 km/h aus W

3.6 C

3.6 C

3.7 C

5.7 C

73 W/m

0.00 mm

11:10

5.8 C

1029.6 hpa

86 %

11.3 km/h aus 117

20.9 km/h aus WSW

3.6 C

3.3 C

3.3 C

5.7 C

84 W/m

0.00 mm

11:15

5.8 C

1029.7 hpa

85 %

9.7 km/h aus 117

24.1 km/h aus WSW

3.5 C

3.6 C

3.7 C

5.7 C

101 W/m

0.00 mm

11:20

5.8 C

1029.7 hpa

85 %

9.7 km/h aus 116

19.3 km/h aus WSW

3.5 C

3.7 C

3.7 C

5.8 C

107 W/m

0.00 mm

11:25

5.8 C

1029.7 hpa

85 %

11.3 km/h aus 115

22.5 km/h aus SW

3.5 C

3.4 C

3.4 C

5.8 C

100 W/m

0.00 mm

11:30

5.8 C

1029.8 hpa

85 %

11.3 km/h aus 115

20.9 km/h aus SSW

3.5 C

3.4 C

3.4 C

5.8 C

118 W/m

0.00 mm

11:35

5.9 C

1029.8 hpa

85 %

12.9 km/h aus 116

24.1 km/h aus SW

3.6 C

3.2 C

3.2 C

5.9 C

197 W/m

0.00 mm

11:40

6.2 C

1029.8 hpa

84 %

12.9 km/h aus 117

22.5 km/h aus W

3.7 C

3.4 C

3.5 C

6.1 C

197 W/m

0.00 mm

11:45

6.2 C

1029.9 hpa

84 %

9.7 km/h aus 115

20.9 km/h aus W

3.7 C

4.1 C

4.1 C

6.1 C

154 W/m

0.00 mm

11:50

6.2 C

1029.9 hpa

84 %

12.9 km/h aus 117

24.1 km/h aus W

3.7 C

3.4 C

3.5 C

6.1 C

148 W/m

0.00 mm

11:55

6.2 C

1029.9 hpa

84 %

12.9 km/h aus 114

22.5 km/h aus W

3.7 C

3.4 C

3.5 C

6.1 C

147 W/m

0.00 mm

12:00

6.2 C

1030.1 hpa

84 %

11.3 km/h aus 114

20.9 km/h aus WSW

3.7 C

3.8 C

3.9 C

6.2 C

149 W/m

0.00 mm

12:05

6.3 C

1030.1 hpa

84 %

11.3 km/h aus 116

29.0 km/h aus W

3.8 C

3.9 C

4.0 C

6.2 C

158 W/m

0.00 mm

12:10

6.4 C

1030.1 hpa

84 %

9.7 km/h aus 115

19.3 km/h aus WSW

3.9 C

4.4 C

4.4 C

6.4 C

182 W/m

0.00 mm

12:15

6.6 C

1030.1 hpa

83 %

12.9 km/h aus 117

20.9 km/h aus W

3.9 C

3.9 C

4.0 C

6.5 C

197 W/m

0.00 mm

12:20

6.7 C

1030.1 hpa

83 %

8.0 km/h aus 117

19.3 km/h aus WSW

4.0 C

5.1 C

5.2 C

6.7 C

222 W/m

0.00 mm

12:25

6.7 C

1030.1 hpa

82 %

11.3 km/h aus 114

19.3 km/h aus SW

3.8 C

4.3 C

4.4 C

6.6 C

168 W/m

0.00 mm

12:30

6.7 C

1029.9 hpa

82 %

11.3 km/h aus 116

17.7 km/h aus WSW

3.9 C

4.4 C

4.5 C

6.6 C

176 W/m

0.00 mm

12:35

6.8 C

1029.9 hpa

82 %

11.3 km/h aus 117

19.3 km/h aus WSW

3.9 C

4.4 C

4.6 C

6.7 C

155 W/m

0.00 mm

12:40

6.7 C

1029.9 hpa

82 %

11.3 km/h aus 116

22.5 km/h aus W

3.8 C

4.3 C

4.4 C

6.6 C

161 W/m

0.00 mm

12:45

6.7 C

1030.1 hpa

82 %

9.7 km/h aus 117

20.9 km/h aus SW

3.8 C

4.6 C

4.7 C

6.6 C

147 W/m

0.00 mm

12:50

6.7 C

1030.1 hpa

82 %

9.7 km/h aus 116

19.3 km/h aus SW

3.8 C

4.6 C

4.7 C

6.6 C

138 W/m

0.00 mm

12:55

6.7 C

1030.1 hpa

82 %

9.7 km/h aus 114

20.9 km/h aus WSW

3.9 C

4.7 C

4.8 C

6.6 C

129 W/m

0.00 mm

13:00

6.7 C

1030.2 hpa

82 %

12.9 km/h aus 117

24.1 km/h aus WSW

3.8 C

4.0 C

4.1 C

6.6 C

118 W/m

0.00 mm

13:05

6.7 C

1030.2 hpa

82 %

9.7 km/h aus 116

19.3 km/h aus W

3.8 C

4.6 C

4.7 C

6.6 C

129 W/m

0.00 mm

13:10

6.8 C

1030.2 hpa

82 %

8.0 km/h aus 117

19.3 km/h aus WSW

3.9 C

5.1 C

5.2 C

6.7 C

134 W/m

0.00 mm

13:15

6.8 C

1030.1 hpa

82 %

9.7 km/h aus 117

16.1 km/h aus W

3.9 C

4.7 C

4.8 C

6.7 C

118 W/m

0.00 mm

13:20

6.7 C

1030.1 hpa

82 %

9.7 km/h aus 115

22.5 km/h aus W

3.8 C

4.6 C

4.7 C

6.6 C

102 W/m

0.00 mm

13:25

6.6 C

1030.1 hpa

82 %

11.3 km/h aus 115

20.9 km/h aus WSW

3.8 C

4.3 C

4.4 C

6.5 C

82 W/m

0.00 mm

13:30

6.6 C

1030.1 hpa

82 %

9.7 km/h aus 118

19.3 km/h aus W

3.7 C

4.5 C

4.6 C

6.4 C

89 W/m

0.00 mm

13:35

6.6 C

1030.1 hpa

82 %

11.3 km/h aus 117

22.5 km/h aus WSW

3.7 C

4.2 C

4.3 C

6.4 C

100 W/m

0.00 mm

13:40

6.7 C

1030.1 hpa

83 %

9.7 km/h aus 117

19.3 km/h aus W

4.0 C

4.7 C

4.7 C

6.6 C

129 W/m

0.00 mm

13:45

6.8 C

1029.8 hpa

82 %

6.4 km/h aus 117

14.5 km/h aus WSW

3.9 C

5.5 C

5.6 C

6.7 C

117 W/m

0.00 mm

13:50

6.8 C

1029.8 hpa

83 %

3.2 km/h aus 114

12.9 km/h aus W

4.1 C

6.7 C

6.8 C

6.7 C

109 W/m

0.00 mm

13:55

6.8 C

1029.8 hpa

82 %

6.4 km/h aus 114

19.3 km/h aus WSW

4.0 C

5.6 C

5.7 C

6.7 C

160 W/m

0.00 mm

14:00

7.1 C

1029.7 hpa

82 %

8.0 km/h aus 116

20.9 km/h aus SW

4.2 C

5.4 C

5.6 C

6.9 C

166 W/m

0.00 mm

14:05

6.9 C

1029.7 hpa

81 %

4.8 km/h aus 117

17.7 km/h aus SW

3.9 C

6.3 C

6.4 C

6.8 C

105 W/m

0.00 mm

14:10

6.8 C

1029.7 hpa

80 %

4.8 km/h aus 116

17.7 km/h aus SW

3.6 C

6.1 C

6.2 C

6.7 C

88 W/m

0.00 mm

14:15

6.8 C

1029.7 hpa

80 %

4.8 km/h aus 117

14.5 km/h aus SW

3.6 C

6.1 C

6.2 C

6.7 C

73 W/m

0.00 mm

14:20

6.7 C

1029.7 hpa

80 %

6.4 km/h aus 114

12.9 km/h aus W

3.5 C

5.4 C

5.5 C

6.6 C

73 W/m

0.00 mm

14:25

6.7 C

1029.7 hpa

81 %

4.8 km/h aus 116

16.1 km/h aus WSW

3.6 C

5.9 C

6.1 C

6.6 C

80 W/m

0.00 mm

14:30

6.6 C

1029.6 hpa

81 %

3.2 km/h aus 116

16.1 km/h aus SW

3.6 C

6.5 C

6.6 C

6.5 C

69 W/m

0.00 mm

14:35

6.7 C

1029.6 hpa

81 %

6.4 km/h aus 118

14.5 km/h aus W

3.6 C

5.4 C

5.5 C

6.6 C

64 W/m

0.00 mm

14:40

6.7 C

1029.6 hpa

81 %

8.0 km/h aus 117

19.3 km/h aus WSW

3.7 C

5.1 C

5.2 C

6.6 C

56 W/m

0.00 mm

14:45

6.7 C

1029.2 hpa

80 %

9.7 km/h aus 115

20.9 km/h aus SW

3.5 C

4.7 C

4.8 C

6.6 C

43 W/m

0.00 mm

14:50

6.8 C

1029.2 hpa

80 %

4.8 km/h aus 114

14.5 km/h aus SSW

3.6 C

6.1 C

6.2 C

6.7 C

44 W/m

0.00 mm

14:55

6.7 C

1029.2 hpa

80 %

8.0 km/h aus 116

14.5 km/h aus WSW

3.5 C

5.1 C

5.2 C

6.6 C

48 W/m

0.00 mm

15:00

6.7 C

1029.5 hpa

80 %

4.8 km/h aus 117

14.5 km/h aus WSW

3.5 C

5.9 C

6.1 C

6.6 C

37 W/m

0.00 mm

15:05

6.7 C

1029.5 hpa

81 %

1.6 km/h aus 115

6.4 km/h aus S

3.6 C

6.6 C

6.7 C

6.6 C

37 W/m

0.00 mm

15:10

6.6 C

1029.5 hpa

81 %

3.2 km/h aus 117

12.9 km/h aus SW

3.6 C

6.5 C

6.6 C

6.5 C

44 W/m

0.00 mm

15:15

6.7 C

1029.7 hpa

81 %

1.6 km/h aus 116

11.3 km/h aus WSW

3.7 C

6.6 C

6.7 C

6.6 C

63 W/m

0.00 mm

15:20

6.8 C

1029.7 hpa

82 %

6.4 km/h aus 113

19.3 km/h aus SW

4.0 C

5.6 C

5.7 C

6.7 C

72 W/m

0.00 mm

15:25

6.9 C

1029.7 hpa

81 %

8.0 km/h aus 114

16.1 km/h aus SW

3.9 C

5.2 C

5.3 C

6.8 C

65 W/m

0.00 mm

15:30

6.9 C

1030.0 hpa

81 %

3.2 km/h aus 116

9.7 km/h aus WSW

3.9 C

6.8 C

6.9 C

6.8 C

55 W/m

0.00 mm

15:35

6.9 C

1030.0 hpa

81 %

3.2 km/h aus 117

9.7 km/h aus SW

3.9 C

6.8 C

6.9 C

6.8 C

52 W/m

0.00 mm

15:40

6.9 C

1030.0 hpa

81 %

1.6 km/h aus 118

11.3 km/h aus SW

3.9 C

6.8 C

6.9 C

6.8 C

44 W/m

0.00 mm

15:45

6.9 C

1030.2 hpa

81 %

3.2 km/h aus 115

8.0 km/h aus WSW

3.9 C

6.8 C

6.9 C

6.8 C

25 W/m

0.00 mm

15:50

6.9 C

1030.2 hpa

81 %

4.8 km/h aus 115

14.5 km/h aus SW

3.9 C

6.2 C

6.3 C

6.8 C

23 W/m

0.00 mm

15:55

6.8 C

1030.2 hpa

81 %

1.6 km/h aus 115

12.9 km/h aus SW

3.8 C

6.7 C

6.8 C

6.7 C

18 W/m

0.00 mm

16:00

6.8 C

1030.2 hpa

81 %

3.2 km/h aus 116

9.7 km/h aus WSW

3.7 C

6.7 C

6.8 C

6.7 C

13 W/m

0.00 mm

16:05

6.7 C

1030.2 hpa

81 %

3.2 km/h aus 116

9.7 km/h aus SW

3.6 C

6.6 C

6.7 C

6.6 C

12 W/m

0.00 mm

16:10

6.6 C

1030.2 hpa

81 %

1.6 km/h aus 115

8.0 km/h aus SW

3.5 C

6.4 C

6.6 C

6.4 C

10 W/m

0.00 mm

16:15

6.5 C

1030.2 hpa

81 %

1.6 km/h aus 117

3.2 km/h aus SW

3.5 C

6.4 C

6.5 C

6.4 C

9 W/m

0.00 mm

16:20

6.4 C

1030.2 hpa

81 %

1.6 km/h aus 113

4.8 km/h aus SSW

3.4 C

6.3 C

6.4 C

6.3 C

7 W/m

0.00 mm

16:25

6.3 C

1030.2 hpa

81 %

1.6 km/h aus 116

3.2 km/h aus SSW

3.3 C

6.2 C

6.3 C

6.2 C

4 W/m

0.00 mm

16:30

6.2 C

1030.2 hpa

81 %

1.6 km/h aus 117

3.2 km/h aus SW

3.2 C

6.1 C

6.2 C

6.1 C

0 W/m

0.00 mm

16:35

6.1 C

1030.2 hpa

81 %

1.6 km/h aus 117

3.2 km/h aus SW

3.1 C

5.9 C

6.1 C

5.9 C

0 W/m

0.00 mm

16:40

6.0 C

1030.2 hpa

81 %

0.0 km/h aus 117

3.2 km/h aus SSW

3.0 C

5.8 C

6.0 C

5.8 C

0 W/m

0.00 mm

16:45

5.9 C

1030.4 hpa

81 %

0.0 km/h aus 118

0.0 km/h aus ---

2.9 C

5.7 C

5.9 C

5.7 C

0 W/m

0.00 mm

16:50

5.7 C

1030.4 hpa

81 %

0.0 km/h aus 114

0.0 km/h aus ---

2.7 C

5.5 C

5.7 C

5.5 C

0 W/m

0.00 mm

16:55

5.4 C

1030.4 hpa

80 %

0.0 km/h aus 115

0.0 km/h aus ---

2.3 C

5.3 C

5.4 C

5.3 C

0 W/m

0.00 mm

17:00

5.3 C

1030.7 hpa

81 %

0.0 km/h aus 117

0.0 km/h aus ---

2.3 C

5.2 C

5.3 C

5.2 C

0 W/m

0.00 mm

17:05

5.1 C

1030.7 hpa

81 %

0.0 km/h aus 117

3.2 km/h aus SSW

2.1 C

4.9 C

5.1 C

4.9 C

0 W/m

0.00 mm

17:10

4.9 C

1030.7 hpa

80 %

1.6 km/h aus 117

3.2 km/h aus SSW

1.8 C

4.8 C

4.9 C

4.8 C

0 W/m

0.00 mm

17:15

4.7 C

1030.8 hpa

80 %

0.0 km/h aus 116

1.6 km/h aus SSW

1.6 C

4.6 C

4.7 C

4.6 C

0 W/m

0.00 mm

17:20

4.4 C

1030.8 hpa

80 %

0.0 km/h aus 116

0.0 km/h aus ---

1.3 C

4.3 C

4.4 C

4.3 C

0 W/m

0.00 mm

17:25

4.2 C

1030.8 hpa

80 %

0.0 km/h aus 115

0.0 km/h aus ---

1.1 C

4.1 C

4.2 C

4.1 C

0 W/m

0.00 mm

17:30

4.1 C

1031.0 hpa

80 %

0.0 km/h aus 113

0.0 km/h aus ---

0.9 C

3.9 C

4.1 C

3.9 C

0 W/m

0.00 mm

17:35

3.9 C

1031.0 hpa

81 %

0.0 km/h aus 116

0.0 km/h aus ---

1.0 C

3.8 C

3.9 C

3.8 C

0 W/m

0.00 mm

17:40

3.7 C

1031.0 hpa

81 %

0.0 km/h aus 117

0.0 km/h aus ---

0.8 C

3.6 C

3.7 C

3.6 C

0 W/m

0.00 mm

17:45

3.6 C

1030.9 hpa

81 %

1.6 km/h aus 116

4.8 km/h aus S

0.7 C

3.4 C

3.6 C

3.4 C

0 W/m

0.00 mm

17:50

3.5 C

1030.9 hpa

82 %

0.0 km/h aus 117

0.0 km/h aus ---

0.7 C

3.3 C

3.5 C

3.3 C

0 W/m

0.00 mm

17:55

3.4 C

1030.9 hpa

82 %

0.0 km/h aus 116

0.0 km/h aus ---

0.6 C

3.2 C

3.4 C

3.2 C

0 W/m

0.00 mm

18:00

3.3 C

1031.0 hpa

83 %

0.0 km/h aus 115

0.0 km/h aus ---

0.7 C

3.2 C

3.3 C

3.2 C

0 W/m

0.00 mm

18:05

3.2 C

1031.0 hpa

82 %

0.0 km/h aus 114

0.0 km/h aus ---

0.4 C

3.0 C

3.2 C

3.0 C

0 W/m

0.00 mm

18:10

3.1 C

1031.0 hpa

83 %

0.0 km/h aus 116

0.0 km/h aus ---

0.4 C

2.9 C

3.1 C

2.9 C

0 W/m

0.00 mm

18:15

3.0 C

1030.9 hpa

83 %

0.0 km/h aus 115

3.2 km/h aus S

0.4 C

2.9 C

3.0 C

2.9 C

0 W/m

0.00 mm

18:20

2.9 C

1030.9 hpa

84 %

1.6 km/h aus 115

6.4 km/h aus SSE

0.5 C

2.8 C

2.9 C

2.8 C

0 W/m

0.00 mm

18:25

2.8 C

1030.9 hpa

84 %

1.6 km/h aus 117

3.2 km/h aus SSE

0.3 C

2.7 C

2.8 C

2.7 C

0 W/m

0.00 mm

18:30

2.7 C

1031.1 hpa

84 %

1.6 km/h aus 117

1.6 km/h aus SSE

0.3 C

2.6 C

2.7 C

2.6 C

0 W/m

0.00 mm

18:35

2.7 C

1031.1 hpa

85 %

1.6 km/h aus 117

3.2 km/h aus S

0.4 C

2.6 C

2.7 C

2.6 C

0 W/m

0.00 mm

18:40

2.7 C

1031.1 hpa

85 %

1.6 km/h aus 115

3.2 km/h aus S

0.4 C

2.6 C

2.7 C

2.6 C

0 W/m

0.00 mm

18:45

2.6 C

1031.0 hpa

85 %

1.6 km/h aus 114

3.2 km/h aus S

0.3 C

2.5 C

2.6 C

2.5 C

0 W/m

0.00 mm

18:50

2.6 C

1031.0 hpa

86 %

1.6 km/h aus 116

8.0 km/h aus S

0.5 C

2.5 C

2.6 C

2.5 C

0 W/m

0.00 mm

18:55

2.6 C

1031.0 hpa

87 %

1.6 km/h aus 118

3.2 km/h aus S

0.7 C

2.5 C

2.6 C

2.5 C

0 W/m

0.00 mm

19:00

2.7 C

1031.1 hpa

87 %

1.6 km/h aus 117

8.0 km/h aus S

0.7 C

2.6 C

2.7 C

2.6 C

0 W/m

0.00 mm

19:05

2.7 C

1031.1 hpa

87 %

1.6 km/h aus 116

3.2 km/h aus S

0.7 C

2.6 C

2.7 C

2.6 C

0 W/m

0.00 mm

19:10

2.7 C

1031.1 hpa

88 %

1.6 km/h aus 116

1.6 km/h aus S

0.9 C

2.6 C

2.7 C

2.6 C

0 W/m

0.00 mm

19:15

2.6 C

1031.0 hpa

88 %

1.6 km/h aus 116

1.6 km/h aus SSE

0.8 C

2.6 C

2.6 C

2.6 C

0 W/m

0.00 mm

19:20

2.6 C

1031.0 hpa

88 %

1.6 km/h aus 114

3.2 km/h aus S

0.8 C

2.5 C

2.6 C

2.5 C

0 W/m

0.00 mm

19:25

2.5 C

1031.0 hpa

88 %

1.6 km/h aus 114

3.2 km/h aus S

0.7 C

2.4 C

2.5 C

2.4 C

0 W/m

0.00 mm

19:30

2.4 C

1031.0 hpa

88 %

1.6 km/h aus 116

6.4 km/h aus S

0.7 C

2.4 C

2.4 C

2.4 C

0 W/m

0.00 mm

19:35

2.3 C

1031.0 hpa

88 %

1.6 km/h aus 117

3.2 km/h aus SSE

0.5 C

2.3 C

2.3 C

2.3 C

0 W/m

0.00 mm

19:40

2.3 C

1031.0 hpa

89 %

1.6 km/h aus 116

3.2 km/h aus SSE

0.7 C

2.2 C

2.3 C

2.2 C

0 W/m

0.00 mm

19:45

2.2 C

1031.0 hpa

89 %

1.6 km/h aus 117

3.2 km/h aus S

0.6 C

2.2 C

2.2 C

2.2 C

0 W/m

0.00 mm

19:50

2.2 C

1031.0 hpa

89 %

1.6 km/h aus 117

3.2 km/h aus S

0.5 C

2.1 C

2.2 C

2.1 C

0 W/m

0.00 mm

19:55

2.2 C

1031.0 hpa

89 %

1.6 km/h aus 115

3.2 km/h aus S

0.5 C

2.1 C

2.2 C

2.1 C

0 W/m

0.00 mm

20:00

2.2 C

1031.0 hpa

89 %

1.6 km/h aus 114

9.7 km/h aus S

0.5 C

2.1 C

2.2 C

2.1 C

0 W/m

0.00 mm

20:05

2.2 C

1031.0 hpa

90 %

1.6 km/h aus 117

6.4 km/h aus S

0.7 C

2.1 C

2.2 C

2.1 C

0 W/m

0.00 mm

20:10

2.2 C

1031.0 hpa

90 %

1.6 km/h aus 116

8.0 km/h aus S

0.8 C

2.2 C

2.2 C

2.2 C

0 W/m

0.00 mm

20:15

2.2 C

1030.9 hpa

90 %

1.6 km/h aus 116

3.2 km/h aus S

0.8 C

2.2 C

2.2 C

2.2 C

0 W/m

0.00 mm

20:20

2.2 C

1030.9 hpa

90 %

1.6 km/h aus 116

4.8 km/h aus S

0.8 C

2.2 C

2.2 C

2.2 C

0 W/m

0.00 mm

20:25

2.3 C

1030.9 hpa

90 %

1.6 km/h aus 117

8.0 km/h aus SSE

0.8 C

2.2 C

2.3 C

2.2 C

0 W/m

0.00 mm

20:30

2.3 C

1031.1 hpa

90 %

1.6 km/h aus 117

8.0 km/h aus SSE

0.8 C

2.2 C

2.3 C

2.2 C

0 W/m

0.00 mm

20:35

2.3 C

1031.1 hpa

90 %

1.6 km/h aus 115

3.2 km/h aus S

0.8 C

2.2 C

2.3 C

2.2 C

0 W/m

0.00 mm

20:40

2.3 C

1031.1 hpa

90 %

1.6 km/h aus 114

1.6 km/h aus SSE

0.8 C

2.2 C

2.3 C

2.2 C

0 W/m

0.00 mm

20:45

2.2 C

1030.9 hpa

90 %

1.6 km/h aus 114

1.6 km/h aus SSE

0.8 C

2.2 C

2.2 C

2.2 C

0 W/m

0.00 mm

20:50

2.1 C

1030.9 hpa

90 %

1.6 km/h aus 114

3.2 km/h aus S

0.6 C

2.1 C

2.1 C

2.1 C

0 W/m

0.00 mm

20:55

2.1 C

1030.9 hpa

90 %

1.6 km/h aus 117

8.0 km/h aus S

0.6 C

2.0 C

2.1 C

2.0 C

0 W/m

0.00 mm

21:00

2.0 C

1031.0 hpa

90 %

3.2 km/h aus 116

8.0 km/h aus S

0.5 C

1.6 C

1.6 C

1.9 C

0 W/m

0.00 mm

21:05

1.9 C

1031.0 hpa

90 %

1.6 km/h aus 116

6.4 km/h aus SSE

0.5 C

1.9 C

1.9 C

1.9 C

0 W/m

0.00 mm

21:10

1.9 C

1031.0 hpa

91 %

1.6 km/h aus 117

3.2 km/h aus S

0.6 C

1.8 C

1.9 C

1.8 C

0 W/m

0.00 mm

21:15

1.8 C

1031.2 hpa

91 %

1.6 km/h aus 112

3.2 km/h aus S

0.5 C

1.8 C

1.8 C

1.8 C

0 W/m

0.00 mm

21:20

1.8 C

1031.2 hpa

91 %

1.6 km/h aus 115

3.2 km/h aus S

0.5 C

1.8 C

1.8 C

1.8 C

0 W/m

0.00 mm

21:25

1.8 C

1031.2 hpa

91 %

1.6 km/h aus 117

6.4 km/h aus S

0.5 C

1.8 C

1.8 C

1.8 C

0 W/m

0.00 mm

21:30

1.9 C

1031.3 hpa

91 %

1.6 km/h aus 116

11.3 km/h aus S

0.6 C

1.8 C

1.9 C

1.8 C

0 W/m

0.00 mm

21:35

1.9 C

1031.3 hpa

91 %

3.2 km/h aus 117

8.0 km/h aus S

0.6 C

1.5 C

1.6 C

1.9 C

0 W/m

0.00 mm

21:40

1.9 C

1031.3 hpa

91 %

3.2 km/h aus 116

9.7 km/h aus S

0.6 C

1.5 C

1.6 C

1.9 C

0 W/m

0.00 mm

21:45

2.0 C

1031.2 hpa

91 %

1.6 km/h aus 116

4.8 km/h aus SSE

0.7 C

1.9 C

2.0 C

1.9 C

0 W/m

0.00 mm

21:50

2.0 C

1031.2 hpa

91 %

1.6 km/h aus 116

8.0 km/h aus SSE

0.7 C

1.9 C

2.0 C

1.9 C

0 W/m

0.00 mm

21:55

1.9 C

1031.2 hpa

91 %

1.6 km/h aus 114

9.7 km/h aus S

0.6 C

1.9 C

1.9 C

1.9 C

0 W/m

0.00 mm

22:00

1.9 C

1031.3 hpa

91 %

1.6 km/h aus 114

4.8 km/h aus S

0.6 C

1.9 C

1.9 C

1.9 C

0 W/m

0.00 mm

22:05

1.9 C

1031.3 hpa

91 %

1.6 km/h aus 116

6.4 km/h aus SSE

0.6 C

1.8 C

1.9 C

1.8 C

0 W/m

0.00 mm

22:10

1.9 C

1031.3 hpa

91 %

1.6 km/h aus 117

8.0 km/h aus S

0.6 C

1.8 C

1.9 C

1.8 C

0 W/m

0.00 mm

22:15

1.8 C

1031.2 hpa

91 %

1.6 km/h aus 117

3.2 km/h aus S

0.5 C

1.8 C

1.8 C

1.8 C

0 W/m

0.00 mm

22:20

1.8 C

1031.2 hpa

91 %

1.6 km/h aus 117

6.4 km/h aus SSE

0.5 C

1.7 C

1.8 C

1.7 C

0 W/m

0.00 mm

22:25

1.8 C

1031.2 hpa

91 %

1.6 km/h aus 117

8.0 km/h aus S

0.5 C

1.7 C

1.8 C

1.7 C

0 W/m

0.00 mm

22:30

1.8 C

1031.3 hpa

92 %

3.2 km/h aus 114

11.3 km/h aus S

0.6 C

1.3 C

1.4 C

1.7 C

0 W/m

0.00 mm

22:35

1.8 C

1031.3 hpa

92 %

1.6 km/h aus 114

8.0 km/h aus S

0.7 C

1.8 C

1.8 C

1.8 C

0 W/m

0.00 mm

22:40

1.9 C

1031.3 hpa

92 %

1.6 km/h aus 115

3.2 km/h aus S

0.7 C

1.8 C

1.9 C

1.8 C

0 W/m

0.00 mm

22:45

1.9 C

1031.3 hpa

92 %

1.6 km/h aus 117

4.8 km/h aus S

0.7 C

1.8 C

1.9 C

1.8 C

0 W/m

0.00 mm

22:50

1.9 C

1031.3 hpa

92 %

1.6 km/h aus 117

3.2 km/h aus S

0.7 C

1.8 C

1.9 C

1.8 C

0 W/m

0.00 mm

22:55

1.9 C

1031.3 hpa

92 %

3.2 km/h aus 117

11.3 km/h aus S

0.7 C

1.4 C

1.5 C

1.8 C

0 W/m

0.00 mm

23:00

1.9 C

1031.3 hpa

92 %

3.2 km/h aus 116

11.3 km/h aus S

0.8 C

1.5 C

1.6 C

1.9 C

0 W/m

0.00 mm

23:05

1.9 C

1031.3 hpa

92 %

1.6 km/h aus 116

3.2 km/h aus S

0.8 C

1.9 C

1.9 C

1.9 C

0 W/m

0.00 mm

23:10

1.9 C

1031.3 hpa

92 %

3.2 km/h aus 114

9.7 km/h aus SSE

0.8 C

1.5 C

1.6 C

1.9 C

0 W/m

0.00 mm

23:15

2.0 C

1031.1 hpa

92 %

1.6 km/h aus 114

3.2 km/h aus SSE

0.8 C

1.9 C

2.0 C

1.9 C

0 W/m

0.00 mm

23:20

1.9 C

1031.1 hpa

92 %

1.6 km/h aus 118

3.2 km/h aus SSE

0.8 C

1.9 C

1.9 C

1.9 C

0 W/m

0.00 mm

23:25

1.9 C

1031.1 hpa

92 %

1.6 km/h aus 117

3.2 km/h aus S

0.8 C

1.9 C

1.9 C

1.9 C

0 W/m

0.00 mm

23:30

1.9 C

1030.8 hpa

92 %

1.6 km/h aus 115

4.8 km/h aus S

0.8 C

1.9 C

1.9 C

1.9 C

0 W/m

0.00 mm

23:35

1.9 C

1030.8 hpa

92 %

3.2 km/h aus 115

11.3 km/h aus SSE

0.8 C

1.5 C

1.6 C

1.9 C

0 W/m

0.00 mm

23:40

1.9 C

1030.8 hpa

92 %

3.2 km/h aus 117

11.3 km/h aus SSE

0.8 C

1.5 C

1.6 C

1.9 C

0 W/m

0.00 mm

23:45

2.0 C

1030.5 hpa

92 %

6.4 km/h aus 115

16.1 km/h aus SSE

0.8 C

0.1 C

0.1 C

1.9 C

0 W/m

0.00 mm

23:50

2.1 C

1030.5 hpa

92 %

4.8 km/h aus 115

17.7 km/h aus SSE

0.9 C

0.8 C

0.9 C

2.1 C

0 W/m

0.00 mm

23:55

2.2 C

1030.5 hpa

93 %

4.8 km/h aus 115

17.7 km/h aus SSW

1.2 C

0.9 C

0.9 C

2.2 C

0 W/m

0.00 mm